Location: Colebrook
(42.0017°N, 73.0973°W)
Time: 06:43:46
(UTC-04:00)

X-37B - Visible Passes

Search period start: 28 September 2021 00:00
Search period end: 08 October 2021 00:00
Orbit: 381 x 393 km, 45.0° (Epoch: 29 August)

Date Brightness Start Highest point End Pass type
(mag) Time Alt. Az. Time Alt. Az. Time Alt. Az.
28 Sep 2.7 04:34:46 27° NE 04:34:46 27° NE 04:36:28 10° ENE visible
28 Sep 1.1 06:07:10 10° WNW 06:10:16 54° N 06:13:23 10° E visible
29 Sep 1.2 05:11:21 42° NNW 05:11:48 46° N 05:14:52 10° E visible
30 Sep 3.8 04:15:41 15° ENE 04:15:41 15° ENE 04:16:23 10° ENE visible
30 Sep 0.7 05:47:59 18° WNW 05:50:11 73° NNE 05:53:21 10° ESE visible
01 Oct 1.7 04:52:23 44° ENE 04:52:23 44° ENE 04:54:51 10° E visible
02 Oct 0.5 05:29:10 43° W 05:30:03 74° SSW 05:33:11 10° ESE visible
03 Oct 3.2 04:33:44 19° E 04:33:44 19° E 04:34:48 10° ESE visible
03 Oct 1.9 06:06:03 14° W 06:08:05 25° SSW 06:10:45 10° SSE visible
04 Oct 1.7 05:10:44 33° SSE 05:10:44 33° SSE 05:12:51 10° SE visible
05 Oct 2.6 05:47:52 14° SW 05:47:52 14° SW 05:49:31 10° S visible
